Location: Brest
(52.1000°N, 23.7000°E)
Time: 08:23:26
(UTC+03:00)

Genesis I - Visible Passes

Search period start: 27 May 2018 00:00
Search period end: 06 June 2018 00:00
Orbit: 481 x 546 km, 64.5° (Epoch: 26 May)

Date Brightness Start Highest point End Pass type
(mag) Time Alt. Az. Time Alt. Az. Time Alt. Az.
27 May 4.0 03:03:09 21° S 03:05:23 42° SE 03:09:14 10° NE visible
28 May 3.9 02:47:05 24° S 02:49:03 43° SE 02:52:54 10° NE visible
28 May 4.5 04:23:03 10° WSW 04:26:47 36° NW 04:30:36 10° NNE visible
29 May 3.9 02:30:58 26° S 02:32:43 43° SE 02:36:35 10° NE visible
29 May 4.5 04:06:43 10° WSW 04:10:27 36° NW 04:14:16 10° NNE visible
30 May 3.8 02:14:48 29° S 02:16:22 43° SE 02:20:15 10° NE visible
30 May 4.5 03:50:24 10° WSW 03:54:08 36° NW 03:57:56 10° NNE visible
31 May 3.8 01:58:35 30° S 02:00:02 44° SE 02:03:55 10° NE visible
31 May 4.6 03:34:04 10° WSW 03:37:48 36° NW 03:41:36 10° NNE visible
01 Jun 3.7 01:42:20 31° S 01:43:41 44° SE 01:47:35 10° NE visible
01 Jun 4.6 03:17:44 10° WSW 03:21:27 35° NW 03:25:15 10° NNE visible
02 Jun 3.7 01:25:59 31° S 01:27:21 45° SE 01:31:15 10° NE visible
02 Jun 4.7 03:01:24 10° WSW 03:05:08 35° NW 03:08:55 10° NNE visible
03 Jun 3.7 01:09:34 31° S 01:11:01 45° SE 01:14:54 10° NE visible
03 Jun 4.7 02:45:04 10° WSW 02:48:47 35° NW 02:52:34 10° NNE visible
04 Jun 3.6 00:53:05 29° S 00:54:40 45° SE 00:58:34 10° NE visible
04 Jun 4.8 02:28:44 10° W 02:32:27 35° NW 02:36:14 10° NNE visible
04 Jun 6.0 04:08:38 10° NW 04:11:11 16° N 04:13:47 10° NNE visible
05 Jun 3.6 00:36:29 26° S 00:38:19 46° SE 00:42:13 10° NE visible
05 Jun 4.8 02:12:24 10° W 02:16:07 34° NW 02:19:53 10° NNE visible
05 Jun 6.0 03:52:18 10° NW 03:54:51 16° N 03:57:27 10° NNE visible
